Commit Graph
100 Commits
Author SHA1 Message Date
AJ Kelly 8e3f09bf6c fix score frame not showing up 2007-05-20 20:39:14 +00:00
AJ Kelly 44b33de94a fix scroller 2007-05-20 19:54:48 +00:00
AJ Kelly f4cec5f3d1 i -> I, for consistency's sake 2007-05-19 22:37:36 +00:00
AJ Kelly 083d68e774 fix uneven dimensions 2007-05-19 22:15:27 +00:00
AJ Kelly 3cda6efeb4 new ScreenSelectStyle graphics 2007-05-19 21:54:04 +00:00
AJ Kelly 5fdda4ba0a xml -> lua 2007-05-17 22:26:36 +00:00
AJ Kelly 871d12fb72 fix dimensions 2007-05-17 19:28:25 +00:00
AJ Kelly f5521b64d1 simplify design 2007-05-17 19:19:53 +00:00
AJ Kelly 0ae69c2351 change StyleIcon position as not to be covered by the music wheel 2007-05-15 20:07:34 +00:00
AJ Kelly 9b55ded89f change header transitions 2007-05-15 20:01:04 +00:00
AJ Kelly 1b109dc874 new style 2007-05-15 19:41:09 +00:00
AJ Kelly 571d0d6fda course name size and position on ScreenSelectCourse 2007-05-15 19:19:14 +00:00
AJ Kelly 3b7532b559 add missing ShowDancingCharacters 2007-05-15 19:13:51 +00:00
AJ Kelly 0a1c886de5 change explanation font 2007-05-13 02:49:21 +00:00
AJ Kelly fadc6c5d39 reposition grades 2007-05-13 02:33:48 +00:00
AJ Kelly 0b4f3f5d30 remove artifact on memory card icon 2007-05-13 02:22:48 +00:00
AJ Kelly ecc90632de xml -> lua, font change 2007-05-13 00:14:53 +00:00
AJ Kelly badd8dea99 remove out of place demo graphic, replace with one that looks in place (could possibly be converted to a bitmaptext instead?) 2007-05-12 23:46:21 +00:00
AJ Kelly d7cfa58368 zeroes three to match old syszero 2007-05-12 23:44:04 +00:00
AJ Kelly 6f47e9eb2f update musicwheel (new graphics, changed spacing, item curve, grade positions) 2007-05-12 23:00:30 +00:00
AJ Kelly c39885edce add missing characters 2007-05-12 22:11:31 +00:00
AJ Kelly acef139e70 new, more legible typeface for TextBanner 2007-05-12 22:10:17 +00:00
AJ Kelly 7f44ea20c9 temporary font replacement 2007-05-12 21:59:04 +00:00
AJ Kelly 0b9d338daa XML -> Lua 2007-05-07 17:27:28 +00:00
AJ Kelly b5c5f1c3d7 "Difficuty" -> "Difficulty" 2007-05-07 17:18:56 +00:00
AJ Kelly c9b8d829fe fix Ds showing up for non-played songs 2007-05-05 05:54:23 +00:00
AJ Kelly 8d168ad8e2 add ScreenProfileLoad 2007-04-24 21:09:57 +00:00
AJ Kelly 4821e7ba06 fix arrows appearing under score but over score frame 2007-04-15 22:24:23 +00:00
AJ Kelly 137c9dd104 add instruction psds 2007-04-09 02:37:39 +00:00
AJ Kelly cc77e3a11d remove deleted files 2007-04-08 02:11:50 +00:00
AJ Kelly 642f8cef7c now without text (sadly, still not widescreen) 2007-04-07 17:35:50 +00:00
AJ Kelly c3f405eede xml -> lua 2007-04-02 17:36:59 +00:00
AJ Kelly a63851f13c xml -> lua. should I be using zoomtowidth/zoomtoheight or stretchto,LEFT,TOP,RIGHT,BOTTOM? 2007-04-02 17:05:40 +00:00
AJ Kelly 59902632fc since in theory we can use the default theme for multiple gametypes, add a notification of current gametype. 2007-04-02 16:59:59 +00:00
AJ Kelly 3608aaa0c5 if we're centering the menu, let's center the bitmaptext objects. also, xml -> lua 2007-04-02 16:54:44 +00:00
AJ Kelly a6adfbb75d small fix 2007-04-01 19:32:58 +00:00
AJ Kelly 613f7ecc0e now that I think about it, the slanted title menu options don't really work well anymore. 2007-03-14 23:39:26 +00:00
AJ Kelly 3ce08b5d13 fix a metric error in ScreenMusicScroll as explained by chinese_amuro on the forums 2007-02-19 17:44:59 +00:00
AJ Kelly d169005d60 ScreenSelectCharacter attack frame (font change+ psd) 2007-02-18 21:29:15 +00:00
AJ Kelly 8fd882fdfc psd versions of newly committed banners 2007-02-18 21:20:57 +00:00
AJ Kelly 38ce967061 less clutter, font change 2007-02-18 21:19:21 +00:00
AJ Kelly 80fce5b026 replace questionable-looking graphic 2007-02-18 21:11:32 +00:00
AJ Kelly 8ba4cb1203 changing to match new program icon 2007-02-18 20:43:53 +00:00
AJ Kelly 2c235e14de More sizes and formats added, including Windows XP formats (RGBA) 2007-02-18 20:41:56 +00:00
AJ Kelly cfcb8d1953 and fix the other spelling error 2007-02-02 17:27:52 +00:00
AJ Kelly 0b084a677d fixed spelling error 2007-02-02 17:23:38 +00:00
AJ Kelly ce414f86fa redo screencompany with new logo 2007-02-02 06:47:07 +00:00
AJ Kelly 82f8164f96 update splash with new logo 2007-02-02 06:38:59 +00:00
AJ Kelly 27aaaf0be0 add RageSoundReader_PostBuffering 2007-01-20 19:03:15 +00:00
AJ Kelly c8d83fc337 revert; lroundf isn't needed with latest changes 2007-01-03 05:13:28 +00:00
AJ Kelly 92e5ea3a9f added #define NEED_LROUNDF 2007-01-03 04:51:45 +00:00
AJ Kelly 78565952e6 add missing RageSoundReader_ThreadedBuffer and RageSoundReader_Extend 2007-01-03 04:50:01 +00:00
AJ Kelly ca674fc38d now that these are apparently a part of ScreenGameplay, revert to the old ones since they're less distracting. 2006-10-28 05:04:27 +00:00
AJ Kelly 31a444d8d5 change score display numbers to be different from BPM numbers to fit in score frame 2006-10-20 22:35:58 +00:00
AJ Kelly 6f1230d457 new graphics (replacement for demo soon) 2006-10-20 22:25:48 +00:00
AJ Kelly 1aaf9bc814 change bpmdisplay font, positioning 2006-10-20 22:02:29 +00:00
AJ Kelly 37cfb0fe30 panedisplay changes 2006-10-20 21:45:36 +00:00
AJ Kelly 5d5be07a1d add missing ' on GhostArrowDim HitMineCommand 2006-10-17 21:45:11 +00:00
AJ Kelly c0492d0bc1 change font, slightly change position, remove shadow 2006-10-17 21:12:11 +00:00
AJ Kelly 4d6d925aa5 fixed as mentioned on list (can someone please explain how I can call a BitmapText actor with Lua so I can re-add the text, or should I just use XML for the time being?) 2006-10-17 13:38:15 +00:00
AJ Kelly e07e09405c fix missing graphic 2006-10-12 19:21:50 +00:00
AJ Kelly e991998e31 update to strings 2006-10-12 19:19:51 +00:00
AJ Kelly cadeda01d1 redirect to _blank 2006-09-17 18:35:11 +00:00
AJ Kelly 1ce9e46fa3 Only flush the toilet. (Fix an input error caused when exiting Stepmania Credits from the options menu; Now goes to ScreenTitleMenu) 2006-09-16 03:41:04 +00:00
AJ Kelly eb6962247c fix TextBanner placement on course select for entry list 2006-09-15 05:34:15 +00:00
AJ Kelly b3ad0955ff fix position of song title, artist, subtitle on ScreenSelectMusic WheelItems 2006-09-15 05:12:19 +00:00
AJ Kelly 4d10459e92 Add placeholder Tap Lift graphics 2006-09-15 04:48:36 +00:00
AJ Kelly ddce316475 move P1 and P2 scores/frames, rework groove radar labels so they don't get in the way 2006-09-10 19:29:28 +00:00
AJ Kelly 0630367edc add missing ModsGroup.cpp 2006-09-01 03:36:59 +00:00
AJ Kelly e705448f68 add ActorProxy files 2006-08-15 05:45:13 +00:00
AJ Kelly 51946e2aa5 add offcommands for panedisplay elements so they disappear during the "press start for options" message instead of staying on the screen 2006-08-11 06:00:45 +00:00
AJ Kelly 2ca041ea53 fix errors about duplicated commands in PaneDisplay 2006-08-11 05:18:25 +00:00
AJ Kelly 25c8f6e839 add Genre sort and missing metrics 2006-08-02 20:39:11 +00:00
AJ Kelly 748574744f updated designs 2006-07-20 21:57:25 +00:00
AJ Kelly 5dcd6a1fae 'Imcoming' -> 'Incoming' 2006-07-20 21:21:18 +00:00
AJ Kelly d599c866d1 better ScreenStage->ScreenGameplay transition 2006-07-16 02:58:20 +00:00
AJ Kelly bf33f9d906 redone so it doesn't clash with the background 2006-07-15 22:14:39 +00:00
AJ Kelly 31e43bb7b9 add missing metric NumberOnCommandFunction in MultiplayerEvalScoreRow 2006-07-15 20:58:25 +00:00
AJ Kelly 8c234299aa move Personal/Machine record graphics on Eval 2006-07-10 05:26:43 +00:00
AJ Kelly 37d164decc add missing metrics 2006-06-29 00:49:09 +00:00
AJ Kelly 8b7a511e99 New ScreenEvaluation labels to match the new Judgements (also fix positioning of labels and numbers) 2006-06-18 22:50:16 +00:00
AJ Kelly 609d710097 new font (Zero Threes) 2006-06-18 03:30:25 +00:00
AJ Kelly 071f84987e new font (Zero Threes) 2006-06-18 03:10:32 +00:00
AJ Kelly 9547b09cb7 new font (Zero Threes) 2006-06-18 00:24:54 +00:00
AJ Kelly ae47c80a47 remove ScreenWarning (ScreenCaution does the intended job) 2006-06-16 23:36:21 +00:00
AJ Kelly f82709f442 big graphics overhaul (all of the ScreenInstructions items, some headers, ScreenGameOver) 2006-06-16 22:47:42 +00:00
AJ Kelly 935df3cb0b reposition combo numbers to line up again 2006-06-16 22:00:05 +00:00
AJ Kelly 4b08c04124 new graphics for NetRoom 2006-06-14 04:27:49 +00:00
AJ Kelly 9adf9484de trying to get a smoother transition from ScreenStage->Gameplay 2006-06-14 01:20:36 +00:00
AJ Kelly d4c7112a36 fix problem with SM erroring (nonfatal) when a song is played without a background 2006-06-14 01:12:15 +00:00
AJ Kelly b0efa54ee6 changed around to match new judgements 2006-06-10 01:03:14 +00:00
AJ Kelly 4540495b1f smaller filesize, less hectic (removed branding too, if anyone wants it back let me know) 2006-06-03 00:40:01 +00:00
AJ Kelly 4456c5dcd6 fix project file 2006-05-04 06:29:59 +00:00
AJ Kelly 850f3b2564 add the lifegraph to screeneval 2006-05-04 06:28:35 +00:00
AJ Kelly 3f17212a09 remove deleted files from project 2006-05-01 03:32:32 +00:00
AJ Kelly b1683f2c6a fix German translations in PaneDisplay 2006-04-16 18:43:51 +00:00
AJ Kelly 18a1cd92c6 fix up duplication of [PaneDisplay], whoops 2006-04-16 00:03:29 +00:00
AJ Kelly d24c712d9f in preparation of Localization of PaneDisplay elements (non-English languages Babelfished, check translations with people who know the languages) 2006-04-15 23:46:23 +00:00
AJ Kelly fa56a05974 new fallback graphics 2006-04-09 22:24:54 +00:00
AJ Kelly 512322c11e fix MenuTimer location 2006-04-09 21:44:12 +00:00